Location: Choisy
(48.7685°N, 2.4187°E)
Time: 09:44:41
(UTC+00:00)

ATLAS 3B R/B - Pass Details

Date: 05 December 2023
Orbit: 947 x 1247 km, 63.8° (Epoch: 10 February)

Event Time Altitude Azimuth Distance (km) Brightness Sun altitude
Exits shadow 04:56:54 44° 285° (WNW) 1,534 3.0 -23.7°
Maximum altitude 04:58:31 52° 323° (NW) 1,421 3.0 -23.4°
Drops below altitude 10° 05:05:54 10° 38° (NE) 3,165 5.5 -22.2°
Sets 05:08:52 0° 44° (NE) 4,160 6.3 -21.7°
